Aeroporto :
LOGIN :

Iscrizione | Disclaimer

   EN    FR    IT 

 










Sommario :    VFR   VFR Marginale   IFR   IFR Intensivo   IFR Molto Intensivo
Visibilità : 
Base nubi : 
>= 8 km
>= 3000ft
5 / 8 km
1000 / 3000 ft
1500m / 5 km
500 / 1000 ft
800 / 1500m
200 / 500 ft
< 800m
< 200 ft
Simboli :   Temporali  Nebbia  Neve Forte  Precipitazioni Forti  Vento > 20 kt
SIGMETs :   Varie  Temporali  Ghiacco  Turbolenza  Onda orograficha  Ceneri Vulcaniche






- Altitudine del aeroporto : 640 ft
- Codice IATA : AOC


EDAC - Altenburg-Nobitz

ULTIMO METAR :
  • 291420Z 01010KT CAVOK 19/04 Q1026

METARs OBSOLETI :
  • 291350Z 04008KT 360V080 CAVOK 18/04 Q1026
  • 291320Z 07009KT 030V110 CAVOK 19/04 Q1027
  • 291250Z 04008KT 360V090 CAVOK 18/04 Q1027
  • 291220Z 03009KT 360V070 CAVOK 18/05 Q1027
  • 291150Z 05010KT 350V120 CAVOK 18/04 Q1028

TAF TAF EDAC
Valido dal 29 a 15 ore il 30 a 00 ore UTC


291400Z 2915/2924 04008KT CAVOK
BECMG 2916/2919 VRB03KT



MetMap, La meteo Aeronautica in un colpo d'occhio ! - Copyright ORBIFLY Dicembre 2007 - Disclaimer

ORBIFLY MET'MAP TEAM :

Programmazione e sviluppo : Alexandra Zaïnal
Concezione : Baudouin d'Aumeries
Aiuto per la programmazione : Marc-Olivier Méhu
Supporto tecnico e logistico : Manuel Goepfert
Aiuto per la traduzione : Arnaldo La Scala

Contatto : metmap@orbifly.com




FONTI E CREDITI :

   NOAA